Location: Drocourt
(49.0571°N, 1.7669°E)
Time: 15:43:01
(UTC+00:00)

SR - All Passes

Search period start: 13 April 2024 00:00
Search period end: 23 April 2024 00:00
Orbit: 577 x 864 km, 66.7° (Epoch: 12 April)

Date Brightness Start Highest point End Pass type
(mag) Time Alt. Az. Time Alt. Az. Time Alt. Az.
13 Apr - 02:29:01 10° SSE 02:33:36 26° ESE 02:37:58 10° ENE visible
13 Apr - 04:09:44 10° SW 04:15:15 62° NW 04:20:22 10° NNE visible
13 Apr - 05:54:27 10° WNW 05:58:06 18° NNW 06:01:34 10° NNE daylight
13 Apr - 09:23:38 10° N 09:26:12 14° NNE 09:28:41 10° NE daylight
13 Apr - 11:04:48 10° NNW 11:09:20 46° NE 11:13:33 10° ESE daylight
13 Apr - 12:47:10 10° NW 12:50:57 26° WSW 12:54:32 10° SSW daylight
14 Apr - 01:39:16 10° SE 01:41:58 14° ESE 01:44:36 10° ENE visible
14 Apr - 03:17:35 10° SSW 03:23:10 76° ESE 03:28:21 10° NE visible
14 Apr - 05:01:00 10° W 05:05:33 27° NW 05:09:51 10° NNE daylight
14 Apr - 06:47:37 10° NNW 06:49:11 11° NNW 06:50:42 10° N daylight
14 Apr - 08:32:02 10° N 08:33:24 11° NNE 08:34:43 10° NNE daylight
14 Apr - 10:12:57 10° NNW 10:17:00 27° NE 10:20:47 10° E daylight
14 Apr - 11:54:41 10° NW 11:59:11 54° WSW 12:03:23 10° SSE daylight
15 Apr - 02:26:02 10° S 02:31:14 41° ESE 02:36:07 10° NE visible
15 Apr - 04:07:58 10° WSW 04:13:11 42° NW 04:18:02 10° NNE visible
15 Apr - 05:53:33 10° NW 05:56:22 14° NNW 05:59:05 10° N daylight
15 Apr - 09:21:11 10° NNW 09:24:27 18° NNE 09:27:33 10° ENE daylight
15 Apr - 11:02:33 10° NNW 11:07:12 74° NE 11:11:32 10° SE daylight
15 Apr - 12:45:48 10° WNW 12:48:23 15° WSW 12:50:54 10° SW daylight
16 Apr - 01:35:16 10° SSE 01:39:28 22° ESE 01:43:28 10° ENE visible
16 Apr - 03:15:26 10° SW 03:20:58 72° NW 03:26:07 10° NNE visible
16 Apr - 04:59:48 10° WNW 05:03:41 20° NNW 05:07:23 10° NNE daylight
16 Apr - 08:29:31 10° N 08:31:44 13° NNE 08:33:53 10° NE daylight
16 Apr - 10:10:36 10° NNW 10:15:00 39° NE 10:19:07 10° ESE daylight
16 Apr - 11:52:44 10° NW 11:56:46 32° WSW 12:00:35 10° S daylight
17 Apr - 00:46:22 10° ESE 00:47:51 11° ESE 00:49:19 10° E visible
17 Apr - 02:23:25 10° SSW 02:28:55 64° ESE 02:34:02 10° NE visible
17 Apr - 04:06:27 10° W 04:11:11 30° NW 04:15:37 10° NNE visible
17 Apr - 05:52:49 10° NW 05:54:40 12° NNW 05:56:29 10° N daylight
17 Apr - 07:38:05 10° N 07:38:53 10° N 07:39:41 10° NNE daylight
17 Apr - 09:18:45 10° NNW 09:22:36 24° NE 09:26:11 10° E daylight
17 Apr - 11:00:22 10° NW 11:04:56 67° WSW 11:09:12 10° SSE daylight
18 Apr - 01:32:02 10° S 01:37:01 34° ESE 01:41:42 10° NE visible
18 Apr - 03:13:32 10° WSW 03:18:50 48° NW 03:23:46 10° NNE visible
18 Apr - 04:58:47 10° WNW 05:01:53 16° NNW 05:04:51 10° NNE daylight
18 Apr - 08:27:01 10° NNW 08:29:59 16° NNE 08:32:49 10° ENE daylight
18 Apr - 10:08:17 10° NNW 10:12:53 61° NE 10:17:09 10° SE daylight
18 Apr - 11:51:06 10° WNW 11:54:13 19° WSW 11:57:13 10° SSW daylight
19 Apr - 00:41:34 10° SSE 00:45:16 18° ESE 00:48:49 10° ENE visible
19 Apr - 02:21:07 10° SW 02:26:39 84° NW 02:31:48 10° NE visible
19 Apr - 04:05:07 10° W 04:09:14 22° NW 04:13:08 10° NNE visible
19 Apr - 05:52:27 10° NNW 05:53:01 10° N 05:53:34 10° N daylight
19 Apr - 07:35:24 10° N 07:37:13 12° NNE 07:38:59 10° NE daylight
19 Apr - 09:16:21 10° NNW 09:20:36 33° NE 09:24:35 10° ESE daylight
19 Apr - 10:58:18 10° NW 11:02:31 39° WSW 11:06:30 10° S daylight
20 Apr - 01:29:15 10° SSW 01:34:38 54° ESE 01:39:39 10° NE visible
20 Apr - 03:11:52 10° WSW 03:16:46 33° NW 03:21:20 10° NNE visible
20 Apr - 04:57:58 10° NW 05:00:08 12° NNW 05:02:14 10° N daylight
20 Apr - 08:24:32 10° NNW 08:28:07 21° NNE 08:31:31 10° E daylight
20 Apr - 10:06:01 10° NW 10:10:37 82° SW 10:14:54 10° SSE daylight
20 Apr - 11:50:42 10° W 11:51:33 10° WSW 11:52:24 10° WSW daylight
21 Apr - 00:38:04 10° S 00:42:46 29° ESE 00:47:12 10° NE visible
21 Apr - 02:19:04 10° SW 02:24:27 56° NW 02:29:27 10° NNE visible
21 Apr - 04:04:01 10° WNW 04:07:22 17° NNW 04:10:35 10° NNE visible
21 Apr - 07:32:49 10° N 07:35:27 15° NNE 07:37:59 10° ENE daylight
21 Apr - 09:13:58 10° NNW 09:18:29 51° NE 09:22:42 10° SE daylight
21 Apr - 10:56:29 10° WNW 10:59:59 23° WSW 11:03:21 10° SSW daylight
21 Apr - 23:48:00 10° SE 23:51:03 15° ESE 23:54:00 10° ENE visible
22 Apr - 01:26:47 10° SSW 01:32:18 83° SE 01:37:26 10° NE visible
22 Apr - 03:10:26 10° W 03:14:45 24° NW 03:18:50 10° NNE visible
22 Apr - 04:57:25 10° NNW 04:58:25 11° NNW 04:59:25 10° N daylight
22 Apr - 06:41:17 10° N 06:42:38 11° NNE 06:43:57 10° NNE daylight
22 Apr - 08:22:04 10° NNW 08:26:08 29° NE 08:29:57 10° E daylight
22 Apr - 10:03:52 10° NW 10:08:13 47° WSW 10:12:19 10° SSE daylight
